Date String (YYYY-MM-DD hh:mm:ss) UTC,Instrument flags,absolute air pressure of the measurement (hPa),sample flow rate (lpm),inlet stack bypass flow (lpm),air temperature of the measurement (°C),ambient temperature measured by the external sensor (°C),aerosol sample conditioner tube jacket temperature (°C),OPC LED temperature (°C),internal box temperature (°C),relative humidity of the measurement (%),span deviation,mass concentration of particles derived from Lorenz-Mie calculation of OPC scattering (μg/m³),mass concentration of particles derived from Lorenz-Mie calculation of OPC scattering (μg/m³),mass concentration of particles derived from Lorenz-Mie calculation of OPC scattering (μg/m³)
DateTimeUTC,F1_M11,P_M11,Q1_M11,Q2_M11,T1_M11,T2_M11,T3_M11,T4_M11,T5_M11,U1_M11,ZSPAN_M11,X2_M11,X0_M11,X1_M11
2023-07-01 21:00:00,SystemResetWarning,0833.7,5.01,000.00,028.8,024.7,000.0,037.0,030.1,24.4,0000.0,0004.62,0009.75,0004.27
2023-07-01 21:01:00,SystemResetWarning,0833.8,5.00,000.00,028.7,025.0,000.0,037.0,030.0,24.2,0000.0,0004.62,0009.07,0004.28
2023-07-01 21:02:00,SystemResetWarning,0833.8,5.00,000.00,028.7,025.5,000.0,037.1,030.1,25.7,0000.0,0004.62,0009.07,0004.29
2023-07-01 21:03:00,SystemResetWarning,0833.7,5.00,000.00,028.7,026.0,000.0,037.1,030.2,25.8,0000.0,0004.61,0008.29,0004.29
2023-07-01 21:04:00,SystemResetWarning,0833.5,4.99,000.00,028.7,026.4,000.0,037.1,030.3,26.0,0000.0,0004.62,0007.97,0004.29
2023-07-01 21:05:00,SystemResetWarning,0833.8,5.00,000.00,028.7,026.8,000.0,037.1,030.4,27.3,0000.0,0004.65,0007.92,0004.30
2023-07-01 21:06:00,SystemResetWarning,0833.8,5.00,000.00,028.8,027.1,000.0,037.2,030.4,26.2,0000.0,0004.64,0007.81,0004.30
2023-07-01 21:07:00,SystemResetWarning,0833.8,5.00,000.00,028.8,027.4,000.0,037.2,030.5,27.2,0000.0,0004.63,0007.96,0004.30
2023-07-01 21:08:00,SystemResetWarning,0833.8,5.01,000.00,028.9,027.6,000.0,037.2,030.6,26.9,0000.0,0004.65,0008.04,0004.28
2023-07-01 21:09:00,SystemResetWarning,0833.8,4.98,000.00,028.9,027.3,000.0,037.2,030.6,24.8,0000.0,0004.67,0008.46,0004.27
2023-07-01 21:10:00,SystemResetWarning,0833.8,5.01,000.00,028.9,025.8,000.0,037.1,030.4,24.5,0000.0,0004.64,0009.12,0004.26
2023-07-01 21:11:00,SystemResetWarning,0833.8,5.01,000.00,028.8,025.6,000.0,037.0,030.3,24.6,0000.0,0004.65,0009.25,0004.26
2023-07-01 21:12:00,SystemResetWarning,0833.8,4.99,000.00,028.8,025.9,000.0,037.1,030.2,25.1,0000.0,0004.67,0009.36,0004.26
2023-07-01 21:13:00,SystemResetWarning,0833.8,4.99,000.00,028.8,026.2,000.0,037.1,030.3,25.6,0000.0,0004.67,0009.32,0004.25
2023-07-01 21:14:00,SystemResetWarning,0833.8,5.01,000.00,028.8,026.6,000.0,037.2,030.4,25.2,0000.0,0004.65,0009.38,0004.24
2023-07-01 21:15:00,SystemResetWarning,0833.8,5.01,000.00,028.8,027.0,000.0,037.2,030.5,25.3,0000.0,0004.65,0009.75,0004.24
2023-07-01 21:16:00,SystemResetWarning,0833.7,5.00,000.00,028.9,027.3,000.0,037.2,030.6,24.9,0000.0,0004.63,0010.11,0004.24
2023-07-01 21:17:00,SystemResetWarning,0833.8,4.99,000.00,028.9,027.5,000.0,037.3,030.6,25.3,0000.0,0004.62,0009.99,0004.24
2023-07-01 21:18:00,SystemResetWarning,0833.8,4.99,000.00,029.0,027.3,000.0,037.2,030.7,24.9,0000.0,0004.62,0009.69,0004.24
2023-07-01 21:19:00,SystemResetWarning,0833.8,5.00,000.00,028.9,025.6,000.0,037.1,030.4,25.0,0000.0,0004.62,0009.62,0004.24
2023-07-01 21:20:00,SystemResetWarning,0833.8,5.01,000.00,028.8,024.6,000.0,037.0,030.2,25.1,0000.0,0004.61,0009.28,0004.25
2023-07-01 21:21:00,SystemResetWarning,0833.8,5.01,000.00,028.7,024.8,000.0,037.0,030.0,25.4,0000.0,0004.64,0009.03,0004.25
2023-07-01 21:22:00,SystemResetWarning,0833.8,5.00,000.00,028.7,025.2,000.0,037.0,030.0,25.6,0000.0,0004.62,0009.09,0004.24
2023-07-01 21:23:00,SystemResetWarning,0833.8,5.00,000.00,028.7,025.7,000.0,037.1,030.1,25.0,0000.0,0004.60,0008.99,0004.25
2023-07-01 21:24:00,SystemResetWarning,0833.8,5.01,000.00,028.7,026.2,000.0,037.1,030.2,24.8,0000.0,0004.60,0009.01,0004.26
2023-07-01 21:25:00,SystemResetWarning,0833.8,4.98,000.00,028.7,026.6,000.0,037.1,030.3,25.0,0000.0,0004.64,0009.07,0004.27
2023-07-01 21:26:00,SystemResetWarning,0833.8,5.00,000.00,028.7,026.9,000.0,037.1,030.4,24.9,0000.0,0004.63,0008.76,0004.27
2023-07-01 21:27:00,SystemResetWarning,0833.8,5.01,000.00,028.8,027.2,000.0,037.2,030.5,24.5,0000.0,0004.64,0008.25,0004.28
2023-07-01 21:28:00,SystemResetWarning,0833.8,5.01,000.00,028.8,027.5,000.0,037.2,030.6,25.0,0000.0,0004.65,0008.02,0004.28
2023-07-01 21:29:00,SystemResetWarning,0833.9,5.00,000.00,028.9,027.5,000.0,037.2,030.6,25.6,0000.0,0004.67,0008.05,0004.30
2023-07-01 21:30:00,SystemResetWarning,0833.8,4.98,000.00,028.9,026.1,000.0,037.1,030.4,25.3,0000.0,0004.69,0008.19,0004.30
2023-07-01 21:31:00,SystemResetWarning,0833.9,5.01,000.00,028.8,025.5,000.0,037.0,030.3,23.8,0000.0,0004.72,0008.23,0004.32
2023-07-01 21:32:00,SystemResetWarning,0833.9,5.00,000.00,028.8,025.7,000.0,037.0,030.2,23.8,0000.0,0004.74,0008.37,0004.34
2023-07-01 21:33:00,SystemResetWarning,0833.9,4.98,000.00,028.7,026.1,000.0,037.1,030.2,24.2,0000.0,0004.76,0008.25,0004.37
2023-07-01 21:34:00,SystemResetWarning,0834.0,5.01,000.00,028.8,026.5,000.0,037.1,030.3,24.2,0000.0,0004.78,0008.37,0004.38
2023-07-01 21:35:00,SystemResetWarning,0833.9,5.02,000.00,028.8,026.8,000.0,037.2,030.4,25.6,0000.0,0004.80,0008.48,0004.39
2023-07-01 21:36:00,SystemResetWarning,0833.8,4.99,000.00,028.8,027.2,000.0,037.2,030.5,26.2,0000.0,0004.83,0008.44,0004.41
2023-07-01 21:37:00,SystemResetWarning,0833.9,5.00,000.00,028.9,027.5,000.0,037.2,030.6,26.8,0000.0,0004.84,0008.43,0004.43
2023-07-01 21:38:00,SystemResetWarning,0833.8,4.99,000.00,028.9,027.5,000.0,037.2,030.6,27.5,0000.0,0004.85,0008.46,0004.45
2023-07-01 21:39:00,SystemResetWarning,0833.8,5.00,000.00,028.9,026.1,000.0,037.1,030.5,28.8,0000.0,0004.87,0009.20,0004.47
2023-07-01 21:40:00,SystemResetWarning,0833.8,5.01,000.00,028.9,025.4,000.0,037.0,030.4,29.2,0000.0,0004.91,0009.45,0004.49
2023-07-01 21:41:00,SystemResetWarning,0833.8,5.02,000.00,028.8,025.6,000.0,037.0,030.2,28.0,0000.0,0004.96,0010.12,0004.51
2023-07-01 21:42:00,SystemResetWarning,0833.8,4.99,000.00,028.8,025.9,000.0,037.1,030.2,29.2,0000.0,0004.98,0010.09,0004.52
2023-07-01 21:43:00,SystemResetWarning,0833.8,5.00,000.00,028.8,026.3,000.0,037.1,030.3,29.1,0000.0,0005.00,0009.76,0004.55
2023-07-01 21:44:00,SystemResetWarning,0833.8,5.00,000.00,028.8,026.7,000.0,037.2,030.4,30.2,0000.0,0005.02,0009.68,0004.56
2023-07-01 21:45:00,SystemResetWarning,0833.7,5.00,000.00,028.8,027.0,000.0,037.2,030.5,29.8,0000.0,0005.06,0009.59,0004.57
2023-07-01 21:46:00,SystemResetWarning,0833.7,5.00,000.00,028.9,027.3,000.0,037.2,030.6,26.7,0000.2,0005.10,0009.69,0004.58
2023-07-01 21:47:00,SystemResetWarning,0833.7,4.99,000.00,028.9,027.5,000.0,037.2,030.6,25.8,0001.0,0005.10,0010.21,0004.59
2023-07-01 21:48:00,SystemResetWarning,0833.6,4.98,000.00,028.9,026.1,000.0,037.1,030.5,24.8,0000.2,0005.10,0010.24,0004.60
2023-07-01 21:49:00,SystemResetWarning,0833.6,5.02,000.00,028.9,025.3,000.0,037.0,030.4,25.1,-000.0,0005.11,0010.22,0004.60
2023-07-01 21:50:00,SystemResetWarning,0833.6,5.01,000.00,028.8,025.5,000.0,037.0,030.2,25.6,-000.4,0005.09,0009.47,0004.61
2023-07-01 21:51:00,SystemResetWarning,0833.7,5.00,000.00,028.8,025.8,000.0,037.1,030.2,27.6,-000.4,0005.06,0009.19,0004.61
2023-07-01 21:52:00,SystemResetWarning,0833.7,5.00,000.00,028.8,026.2,000.0,037.1,030.3,28.6,-000.6,0004.97,0008.32,0004.60
2023-07-01 21:53:00,SystemResetWarning,0833.7,5.00,000.00,028.8,026.6,000.0,037.2,030.4,29.7,-001.0,0004.96,0008.26,0004.61
2023-07-01 21:54:00,SystemResetWarning,0833.8,5.00,000.00,028.8,027.0,000.0,037.2,030.5,27.9,-000.7,0004.95,0008.22,0004.60
2023-07-01 21:55:00,SystemResetWarning,0833.9,4.98,000.00,028.9,027.3,000.0,037.2,030.6,28.3,-000.3,0004.94,0008.28,0004.59
2023-07-01 21:56:00,SystemResetWarning,0833.8,4.99,000.00,028.9,027.5,000.0,037.3,030.6,28.1,-000.3,0004.94,0008.40,0004.58
2023-07-01 21:57:00,SystemResetWarning,0833.8,5.01,000.00,029.0,027.2,000.0,037.2,030.6,29.1,-000.4,0004.91,0008.39,0004.56
2023-07-01 21:58:00,SystemResetWarning,0833.8,4.99,000.00,028.9,025.6,000.0,037.1,030.4,29.7,-000.5,0004.88,0007.75,0004.54
2023-07-01 21:59:00,SystemResetWarning,0833.8,5.01,000.00,028.8,025.3,000.0,037.0,030.3,29.4,-000.1,0004.90,0008.59,0004.54
